Rancharia, Brazil
Current Conditions -  °F | °C
As of 6:00 PM on Thursday 29 Jan 2015 (Local Time) from SBBQ Reporting Station
Broken Clouds Broken Clouds  
Wind Chill: 86°   Ceiling: 4000
Heat Index: 86°   Visibility: 6mi
Dew Point: 61°   Wind: 5mph
Humidity: 43%   Direction: 250°WSW
Pressure: 30.09"   Gusts: NA
Location:  21.75°S, 43.95°W
Report Text: SBBQ 292000Z 25004KT 9999 BKN040 FEW045TCU 30/16 Q1019
Loading
Personal Weather Stations






























Interactive Weather Map New forecast layout! Learn more

10-Day Weather Forecast

Advertisements
Track Severe Weather on mobile